This is the latest recevied weather packets stored in our database for station/object W3TMB. If no packets are shown the sender has not sent any weather packets the latest 10 day(s).
| Time | Temp. | Humidity | Pressure | Rain* | Wind** | Luminosity | Snow |
|---|---|---|---|---|---|---|---|
| 1777760889 | 10° C | 61% | 1010.5 hPa | 0 mm | - | 39 W/m² | - |
| 1777760586 | 10° C | 59% | 1010.5 hPa | 0 mm | - | 38 W/m² | - |
| 1777760282 | 10° C | 58% | 1010.5 hPa | 0 mm | - | 39 W/m² | - |
| 1777759978 | 10° C | 57% | 1010.5 hPa | 0 mm | - | 51 W/m² | - |
| 1777759675 | 10.56° C | 56% | 1010.3 hPa | 0 mm | - | 78 W/m² | - |
| 1777759371 | 10.56° C | 57% | 1010.5 hPa | 0 mm | - | 105 W/m² | - |
| 1777759068 | 10.56° C | 56% | 1010.4 hPa | 0 mm | - | 109 W/m² | - |
| 1777758765 | 10.56° C | 55% | 1010.4 hPa | 0 mm | - | 105 W/m² | - |
| 1777758462 | 10.56° C | 55% | 1010.2 hPa | 0 mm | - | 106 W/m² | - |
| 1777758159 | 10.56° C | 54% | 1010.4 hPa | 0 mm | - | 108 W/m² | - |
| 1777757856 | 10.56° C | 54% | 1010.3 hPa | 0 mm | - | 111 W/m² | - |
| 1777757554 | 10.56° C | 55% | 1010.3 hPa | 0 mm | - | 134 W/m² | - |
| 1777757252 | 10.56° C | 55% | 1010.2 hPa | 0 mm | - | 139 W/m² | - |
| 1777756950 | 10.56° C | 54% | 1010.3 hPa | 0 mm | - | 145 W/m² | - |
| 1777756646 | 10.56° C | 53% | 1010.3 hPa | 0 mm | - | 146 W/m² | - |
| 1777756343 | 10.56° C | 54% | 1010.2 hPa | 0 mm | - | 142 W/m² | - |
| 1777756040 | 10.56° C | 53% | 1010.3 hPa | 0 mm | - | 142 W/m² | - |
| 1777755737 | 10.56° C | 55% | 1010.2 hPa | 0 mm | - | 167 W/m² | - |
| 1777755435 | 11.11° C | 55% | 1010.3 hPa | 0 mm | - | 180 W/m² | - |
| 1777755130 | 11.11° C | 58% | 1010.3 hPa | 0 mm | - | 175 W/m² | - |
| 1777754828 | 10.56° C | 58% | 1010.2 hPa | 0 mm | - | 180 W/m² | - |
| 1777754526 | 10.56° C | 57% | 1010.4 hPa | 0 mm | - | 187 W/m² | - |
| 1777754222 | 11.11° C | 55% | 1010.4 hPa | 0 mm | - | 216 W/m² | - |
| 1777753921 | 10.56° C | 54% | 1010.3 hPa | 0 mm | - | 203 W/m² | - |
| 1777753614 | 11.11° C | 54% | 1010.4 hPa | 0 mm | - | 221 W/m² | - |
* Rain latest hour (hover to see other rain measurements)
** Current wind speed in m/s (hover to see current wind gust speed)